Wrangell, AK

7:16 AM AKDT on May 28, 2017 (GMT -0800)
Wrangell

Weather History for PAWG - October, 2011

Change the Weather History Date:

Monday, October 24, 2011

  Actual Average Record
Temperature  
Mean Temperature 44 °F -  
Max Temperature 46 °F 48 °F 63 °F (1980)
Min Temperature 42 °F 38 °F 24 °F (1966)
Degree Days  
Heating Degree Days 21    
Moisture  
Dew Point 40 °F    
Average Humidity 84    
Maximum Humidity 93    
Minimum Humidity 76    
Precipitation  
Precipitation 0.00 in - - ()
Sea Level Pressure  
Sea Level Pressure 30.12 in    
Wind  
Wind Speed 6 mph (ESE)    
Max Wind Speed 13 mph    
Max Gust Speed 17 mph    
Visibility 9 miles    
Events      
Averages and records for this station are not official NWS values.
T = Trace of Precipitation, MM = Missing Value Source: NWS Daily Summary

Daily Weather History Graph

Daily Weather History Graph

Search for Another Location

Airport or City:

Trip Planner

Search our weather history database for the weather conditions in past years. The results will help you decide how hot, cold, wet, or windy it might be!

Date:

Astronomy

Oct. 24, 2011 Rise Set
Actual Time 7:40 AM AKDT 5:25 PM AKDT
Civil Twilight 7:01 AM AKDT 6:04 PM AKDT
Nautical Twilight 6:17 AM AKDT 6:48 PM AKDT
Astronomical Twilight 5:33 AM AKDT 7:32 PM AKDT
Moon 4:47 AM AKDT (10/24) 4:08 PM AKDT (10/24)
Length of Visible Light 11h 03m
Length of Day
9h 45m
Waning Crescent, 6% of the Moon is Illuminated
Oct 24
Waning Crescent
Oct 26
New
Nov 2
First Quarter
Nov 10
Full
Nov 18
Last Quarter

Hourly Weather History & Observations

Time (AKDT) Temp. Windchill Dew Point Humidity Pressure Visibility Wind Dir Wind Speed Gust Speed Precip Events Conditions
12:16 AM 44.6 °F 39.2 °F 39.2 °F 81% 29.96 in 10.0 mi ESE 10.4 mph 16.1 mph N/A   Overcast
12:36 AM 44.6 °F 41.4 °F 37.4 °F 76% 29.97 in 10.0 mi SE 5.8 mph - N/A   Overcast
12:56 AM 42.8 °F - 39.2 °F 87% 29.98 in 10.0 mi Calm Calm - N/A   Overcast
1:16 AM 44.6 °F 39.2 °F 37.4 °F 76% 29.98 in 10.0 mi East 10.4 mph - N/A   Overcast
1:36 AM 44.6 °F 38.8 °F 39.2 °F 81% 29.98 in 10.0 mi ESE 11.5 mph - N/A   Overcast
1:56 AM 44.6 °F 38.4 °F 39.2 °F 81% 29.98 in 10.0 mi ESE 12.7 mph 17.3 mph N/A   Overcast
2:16 AM 42.8 °F 37.0 °F 39.2 °F 87% 29.98 in 10.0 mi ESE 10.4 mph - N/A   Overcast
2:36 AM 44.6 °F 39.2 °F 39.2 °F 81% 29.99 in 10.0 mi ESE 10.4 mph - N/A   Overcast
2:56 AM 44.6 °F 39.7 °F 39.2 °F 81% 29.99 in 10.0 mi SE 9.2 mph - N/A   Overcast
3:16 AM 42.8 °F 39.3 °F 37.4 °F 81% 30.00 in 10.0 mi SSE 5.8 mph - N/A   Overcast
3:36 AM 44.6 °F - 39.2 °F 81% 30.01 in 10.0 mi Calm Calm - N/A   Overcast
3:56 AM 44.6 °F - 37.4 °F 76% 30.01 in 10.0 mi Calm Calm - N/A   Overcast
4:16 AM 42.8 °F - 39.2 °F 87% 30.01 in 6.0 mi Calm Calm - N/A   Overcast
4:36 AM 42.8 °F 38.6 °F 39.2 °F 87% 30.02 in 7.0 mi NNE 6.9 mph - N/A   Overcast
4:56 AM 42.8 °F - 39.2 °F 87% 30.02 in 10.0 mi Calm Calm - N/A   Overcast
5:16 AM 42.8 °F - 39.2 °F 87% 30.03 in 6.0 mi Calm Calm - N/A   Overcast
5:36 AM 42.8 °F - 39.2 °F 87% 30.03 in 9.0 mi Calm Calm - N/A   Overcast
5:56 AM 42.8 °F 40.1 °F 39.2 °F 87% 30.04 in 10.0 mi ESE 4.6 mph - N/A   Overcast
6:16 AM 42.8 °F 39.3 °F 39.2 °F 87% 30.04 in 10.0 mi ESE 5.8 mph - N/A   Overcast
6:36 AM 42.8 °F 38.0 °F 39.2 °F 87% 30.05 in 10.0 mi SE 8.1 mph - N/A   Overcast
6:56 AM 42.8 °F 38.0 °F 39.2 °F 87% 30.05 in 10.0 mi ESE 8.1 mph - N/A   Overcast
7:16 AM 42.8 °F 38.6 °F 39.2 °F 87% 30.06 in 7.0 mi SE 6.9 mph - N/A   Overcast
7:36 AM 42.8 °F 37.5 °F 39.2 °F 87% 30.07 in 7.0 mi ESE 9.2 mph - N/A   Overcast
7:56 AM 42.8 °F 39.3 °F 39.2 °F 87% 30.08 in 7.0 mi ESE 5.8 mph - N/A   Overcast
8:16 AM 42.8 °F 38.6 °F 39.2 °F 87% 30.08 in 7.0 mi ESE 6.9 mph - N/A   Overcast
8:36 AM 42.8 °F 37.5 °F 39.2 °F 87% 30.09 in 7.0 mi East 9.2 mph - N/A   Overcast
8:56 AM 42.8 °F 40.1 °F 39.2 °F 87% 30.10 in 7.0 mi SE 4.6 mph - N/A   Overcast
9:16 AM 42.8 °F 38.6 °F 39.2 °F 87% 30.11 in 7.0 mi East 6.9 mph - N/A   Overcast
9:36 AM 42.8 °F 37.5 °F 39.2 °F 87% 30.11 in 7.0 mi East 9.2 mph - N/A   Overcast
9:56 AM 44.6 °F 40.2 °F 39.2 °F 81% 30.12 in 7.0 mi East 8.1 mph - N/A   Overcast
10:16 AM 44.6 °F 39.7 °F 39.2 °F 81% 30.13 in 7.0 mi East 9.2 mph - N/A   Overcast
10:36 AM 44.6 °F 41.4 °F 41.0 °F 87% 30.14 in 7.0 mi East 5.8 mph - N/A   Overcast
10:56 AM 44.6 °F 40.7 °F 41.0 °F 87% 30.15 in 10.0 mi East 6.9 mph - N/A   Overcast
11:16 AM 44.6 °F 40.7 °F 39.2 °F 81% 30.16 in 10.0 mi ESE 6.9 mph - N/A   Overcast
11:36 AM 44.6 °F 42.2 °F 41.0 °F 87% 30.17 in 10.0 mi ESE 4.6 mph - N/A   Overcast
11:56 AM 44.6 °F 43.1 °F 41.0 °F 87% 30.17 in 10.0 mi East 3.5 mph - N/A   Overcast
12:16 PM 44.6 °F 43.1 °F 41.0 °F 87% 30.18 in 10.0 mi East 3.5 mph - N/A   Overcast
12:36 PM 44.6 °F - 41.0 °F 87% 30.19 in 10.0 mi Calm Calm - N/A   Overcast
12:56 PM 44.6 °F - 41.0 °F 87% 30.19 in 10.0 mi Calm Calm - N/A   Overcast
1:16 PM 46.4 °F 43.5 °F 41.0 °F 81% 30.20 in 10.0 mi ESE 5.8 mph - N/A   Overcast
1:36 PM 44.6 °F 42.2 °F 41.0 °F 87% 30.20 in 10.0 mi ESE 4.6 mph - N/A   Overcast
1:56 PM 46.4 °F 44.3 °F 41.0 °F 81% 30.21 in 10.0 mi East 4.6 mph - N/A   Mostly Cloudy
2:16 PM 46.4 °F 43.5 °F 42.8 °F 87% 30.21 in 10.0 mi East 5.8 mph - N/A   Mostly Cloudy
2:36 PM 46.4 °F 43.5 °F 42.8 °F 87% 30.22 in 10.0 mi ESE 5.8 mph - N/A   Mostly Cloudy
2:56 PM 46.4 °F 41.9 °F 41.0 °F 81% 30.22 in 10.0 mi ESE 9.2 mph - N/A   Mostly Cloudy
3:16 PM 46.4 °F 42.4 °F 42.8 °F 87% 30.22 in 10.0 mi ESE 8.1 mph - N/A   Mostly Cloudy
3:36 PM 46.4 °F 41.9 °F 41.0 °F 81% 30.23 in 10.0 mi ESE 9.2 mph - N/A   Mostly Cloudy
3:56 PM 46.4 °F 42.4 °F 41.0 °F 81% 30.23 in 10.0 mi SE 8.1 mph - N/A   Mostly Cloudy
4:16 PM 46.4 °F 43.5 °F 41.0 °F 81% 30.24 in 10.0 mi SE 5.8 mph - N/A   Mostly Cloudy
4:36 PM 46.4 °F 43.5 °F 41.0 °F 81% 30.25 in 10.0 mi ESE 5.8 mph - N/A   Mostly Cloudy
4:56 PM 46.4 °F 43.5 °F 41.0 °F 81% 30.25 in 10.0 mi SE 5.8 mph - N/A   Mostly Cloudy
5:16 PM 46.4 °F 43.5 °F 39.2 °F 76% 30.26 in 10.0 mi SE 5.8 mph - N/A   Mostly Cloudy
5:36 PM 44.6 °F 43.1 °F 42.8 °F 93% 30.26 in 10.0 mi SSE 3.5 mph - N/A   Mostly Cloudy
5:56 PM 44.6 °F 41.4 °F 39.2 °F 81% 30.27 in 10.0 mi SE 5.8 mph - N/A   Overcast
6:16 PM 44.6 °F 41.4 °F 39.2 °F 81% 30.27 in 10.0 mi ESE 5.8 mph - N/A   Overcast
6:36 PM 44.6 °F 40.7 °F 39.2 °F 81% 30.28 in 10.0 mi East 6.9 mph - N/A   Overcast
6:56 PM 44.6 °F 42.2 °F 39.2 °F 81% 30.29 in 10.0 mi ESE 4.6 mph - N/A   Overcast
7:16 PM 44.6 °F 43.1 °F 39.2 °F 81% 30.29 in 10.0 mi ESE 3.5 mph - N/A   Overcast
7:36 PM 44.6 °F 42.2 °F 41.0 °F 87% 30.29 in 10.0 mi East 4.6 mph - N/A   Overcast
7:56 PM 44.6 °F 42.2 °F 39.2 °F 81% 30.30 in 10.0 mi East 4.6 mph - N/A   Overcast
8:16 PM 44.6 °F 43.1 °F 41.0 °F 87% 30.31 in 10.0 mi ESE 3.5 mph - N/A   Overcast
8:36 PM 44.6 °F 41.4 °F 39.2 °F 81% 30.31 in 10.0 mi SE 5.8 mph - N/A   Overcast
8:56 PM 44.6 °F 41.4 °F 39.2 °F 81% 30.31 in 10.0 mi ESE 5.8 mph - N/A   Overcast
9:16 PM 44.6 °F 40.7 °F 41.0 °F 87% 30.31 in 10.0 mi ESE 6.9 mph - N/A   Overcast
9:36 PM 44.6 °F 39.7 °F 41.0 °F 87% 30.31 in 10.0 mi East 9.2 mph - N/A   Overcast
9:56 PM 44.6 °F 40.2 °F 41.0 °F 87% 30.31 in 10.0 mi ESE 8.1 mph - N/A   Overcast
10:16 PM 44.6 °F 42.2 °F 39.2 °F 81% 30.32 in 10.0 mi ESE 4.6 mph - N/A   Overcast
10:36 PM 44.6 °F 43.1 °F 41.0 °F 87% 30.33 in 10.0 mi SE 3.5 mph - N/A   Overcast
10:56 PM 44.6 °F 42.2 °F 39.2 °F 81% 30.32 in 10.0 mi ESE 4.6 mph - N/A   Overcast
11:16 PM 44.6 °F 39.7 °F 39.2 °F 81% 30.32 in 10.0 mi ESE 9.2 mph - N/A   Overcast
11:36 PM 44.6 °F 40.2 °F 39.2 °F 81% 30.33 in 10.0 mi SE 8.1 mph - N/A   Overcast
11:56 PM 44.6 °F 40.7 °F 39.2 °F 81% 30.33 in 10.0 mi SE 6.9 mph - N/A   Mostly Cloudy